| time (UTC) | temp F | wind direction | speed knots | gust knots | rain 1hr in | rain 24hr in | rain mn in | humidity % | barometer mb |
| 20260901000405 | 56 | 297 | 7.8 | 14.8 | 0.00 | 0.02 | 0.00 | 65 | 1013.1 |
| 20260831235905 | 56 | 294 | 7.0 | 15.6 | 0.00 | 0.02 | 0.00 | 65 | 1013.1 |
| 20260831235405 | 56 | 209 | 6.1 | 12.2 | 0.00 | 0.02 | 0.00 | 66 | 1013.1 |
| 20260831234905 | 56 | 230 | 6.1 | 13.9 | 0.00 | 0.02 | 0.00 | 67 | 1013.1 |
| 20260831233406 | 55 | 225 | 9.6 | 18.2 | 0.00 | 0.02 | 0.00 | 67 | 1013.2 |
| 20260831232905 | 55 | 264 | 7.0 | 15.6 | 0.00 | 0.02 | 0.00 | 66 | 1013.2 |
| 20260831232405 | 56 | 261 | 7.8 | 13.9 | 0.00 | 0.02 | 0.00 | 65 | 1013.2 |
| 20260831231905 | 56 | 215 | 6.1 | 13.0 | 0.00 | 0.02 | 0.00 | 66 | 1013.3 |
| 20260831231404 | 56 | 234 | 6.1 | 14.8 | 0.00 | 0.02 | 0.00 | 66 | 1013.2 |
| 20260831230904 | 56 | 217 | 5.2 | 14.8 | 0.00 | 0.02 | 0.00 | 68 | 1013.2 |
| 20260831230405 | 55 | 235 | 6.1 | 14.8 | 0.00 | 0.02 | 0.00 | 67 | 1013.1 |
| 20260831225905 | 55 | 199 | 7.8 | 17.4 | 0.00 | 0.02 | 0.00 | 67 | 1013.1 |
| 20260831225404 | 55 | 234 | 7.8 | 20.0 | 0.00 | 0.02 | 0.00 | 66 | 1013.0 |
| 20260831224905 | 55 | 317 | 11.3 | 21.7 | 0.00 | 0.02 | 0.00 | 66 | 1012.9 |
| 20260831224405 | 55 | 221 | 6.1 | 15.6 | 0.00 | 0.02 | 0.00 | 66 | 1013.1 |
| 20260831222905 | 54 | 205 | 6.1 | 24.3 | 0.00 | 0.02 | 0.00 | 69 | 1012.9 |
| 20260831222405 | 54 | 208 | 7.8 | 18.2 | 0.00 | 0.02 | 0.00 | 69 | 1012.9 |
| 20260831221904 | 54 | 206 | 9.6 | 18.2 | 0.00 | 0.02 | 0.00 | 68 | 1013.1 |
| 20260831221405 | 54 | 232 | 5.2 | 14.8 | 0.00 | 0.02 | 0.00 | 69 | 1013.1 |
| 20260831220905 | 54 | 214 | 6.1 | 17.4 | 0.00 | 0.02 | 0.00 | 69 | 1013.0 |
| 20260831220404 | 53 | 215 | 7.8 | 18.2 | 0.00 | 0.02 | 0.00 | 69 | 1013.0 |
| 20260831215405 | 53 | 217 | 7.0 | 14.8 | 0.00 | 0.02 | 0.00 | 70 | 1013.0 |
| 20260831214905 | 53 | 199 | 4.3 | 17.4 | 0.00 | 0.02 | 0.00 | 69 | 1013.0 |
| 20260831214404 | 53 | 250 | 6.1 | 12.2 | 0.00 | 0.02 | 0.00 | 69 | 1013.0 |
| 20260831213906 | 53 | 192 | 4.3 | 14.8 | 0.00 | 0.02 | 0.00 | 70 | 1012.9 |
| 20260831213404 | 53 | 274 | 4.3 | 15.6 | 0.00 | 0.02 | 0.00 | 71 | 1013.0 |
| 20260831212905 | 52 | 204 | 8.7 | 15.6 | 0.00 | 0.02 | 0.00 | 70 | 1012.9 |
| 20260831211404 | 52 | 214 | 5.2 | 13.9 | 0.00 | 0.02 | 0.00 | 71 | 1012.7 |
| 20260831210905 | 51 | 198 | 5.2 | 13.9 | 0.00 | 0.02 | 0.00 | 72 | 1012.6 |
| 20260831210405 | 51 | 346 | 6.1 | 17.4 | 0.00 | 0.02 | 0.00 | 72 | 1012.4 |
| 20260831205404 | 51 | 255 | 6.1 | 15.6 | 0.00 | 0.02 | 0.00 | 74 | 1012.5 |
| 20260831204904 | 51 | 216 | 3.5 | 8.7 | 0.00 | 0.02 | 0.00 | 74 | 1012.6 |
| 20260831204404 | 50 | 223 | 4.3 | 11.3 | 0.00 | 0.02 | 0.00 | 74 | 1012.4 |
| 20260831203905 | 50 | 237 | 1.7 | 8.7 | 0.00 | 0.02 | 0.00 | 74 | 1012.3 |
| 20260831203405 | 50 | 219 | 3.5 | 10.4 | 0.00 | 0.02 | 0.00 | 74 | 1012.3 |
| 20260831202404 | 49 | 200 | 2.6 | 10.4 | 0.00 | 0.02 | 0.00 | 76 | 1012.4 |
| 20260831201405 | 48 | 239 | 3.5 | 10.4 | 0.00 | 0.02 | 0.00 | 77 | 1012.1 |
| 20260831195904 | 47 | 202 | 5.2 | 13.0 | 0.00 | 0.02 | 0.00 | 78 | 1011.8 |
| 20260831195405 | 47 | 205 | 4.3 | 15.6 | 0.00 | 0.02 | 0.00 | 78 | 1011.9 |
| 20260831194905 | 47 | 219 | 4.3 | 11.3 | 0.00 | 0.02 | 0.00 | 78 | 1011.8 |
| 20260831194404 | 47 | 271 | 4.3 | 10.4 | 0.00 | 0.02 | 0.00 | 78 | 1011.7 |
| 20260831193905 | 47 | 220 | 6.1 | 13.9 | 0.00 | 0.02 | 0.00 | 77 | 1011.7 |
| 20260831192904 | 47 | 251 | 5.2 | 13.0 | 0.00 | 0.02 | 0.00 | 77 | 1011.6 |
| 20260831192404 | 47 | 212 | 2.6 | 10.4 | 0.00 | 0.02 | 0.00 | 77 | 1011.6 |
| 20260831191905 | 47 | 308 | 3.5 | 10.4 | 0.00 | 0.02 | 0.00 | 77 | 1011.4 |
| 20260831191404 | 46 | 205 | 5.2 | 12.2 | 0.00 | 0.02 | 0.00 | 77 | 1011.3 |
| 20260831185904 | 46 | 289 | 3.5 | 10.4 | 0.00 | 0.02 | 0.00 | 76 | 1010.8 |
| 20260831185405 | 46 | 331 | 2.6 | 6.1 | 0.00 | 0.02 | 0.00 | 76 | 1010.7 |
| 20260831184905 | 47 | 218 | 2.6 | 8.7 | 0.00 | 0.02 | 0.00 | 75 | 1010.5 |
| 20260831184405 | 47 | 250 | 5.2 | 12.2 | 0.00 | 0.02 | 0.00 | 75 | 1010.6 |
| 20260831183905 | 47 | 199 | 7.0 | 15.6 | 0.00 | 0.02 | 0.00 | 75 | 1010.6 |
| 20260831183405 | 47 | 208 | 6.1 | 13.9 | 0.00 | 0.02 | 0.00 | 75 | 1010.6 |
| 20260831182905 | 46 | 217 | 5.2 | 14.8 | 0.00 | 0.02 | 0.00 | 76 | 1010.2 |
| 20260831182404 | 46 | 203 | 7.8 | 17.4 | 0.00 | 0.02 | 0.00 | 76 | 1010.2 |
| 20260831181404 | 46 | 218 | 6.1 | 12.2 | 0.00 | 0.02 | 0.00 | 76 | 1010.1 |
| 20260831180904 | 46 | 212 | 5.2 | 14.8 | 0.00 | 0.02 | 0.00 | 77 | 1010.0 |
| 20260831180405 | 46 | 220 | 5.2 | 13.0 | 0.00 | 0.02 | 0.00 | 77 | 1009.8 |
| 20260831175904 | 46 | 235 | 6.1 | 13.9 | 0.00 | 0.02 | 0.00 | 78 | 1009.7 |
| 20260831175405 | 46 | 210 | 4.3 | 13.0 | 0.00 | 0.02 | 0.00 | 78 | 1009.7 |
| 20260831174904 | 46 | 247 | 4.3 | 11.3 | 0.00 | 0.02 | 0.00 | 78 | 1009.8 |
| 20260831174404 | 46 | 216 | 5.2 | 10.4 | 0.00 | 0.02 | 0.00 | 78 | 1009.9 |
| 20260831173904 | 46 | 227 | 4.3 | 10.4 | 0.00 | 0.02 | 0.00 | 78 | 1009.7 |
| 20260831173405 | 46 | 36 | 3.5 | 10.4 | 0.00 | 0.02 | 0.00 | 78 | 1009.7 |
| 20260831172905 | 46 | 215 | 4.3 | 11.3 | 0.00 | 0.02 | 0.00 | 78 | 1009.7 |
| 20260831172404 | 46 | 263 | 4.3 | 12.2 | 0.00 | 0.02 | 0.00 | 78 | 1009.6 |
| 20260831171904 | 46 | 290 | 4.3 | 10.4 | 0.00 | 0.02 | 0.00 | 78 | 1009.6 |
| 20260831171405 | 46 | 254 | 4.3 | 10.4 | 0.00 | 0.02 | 0.00 | 78 | 1009.5 |
| 20260831170905 | 46 | 232 | 3.5 | 10.4 | 0.00 | 0.02 | 0.00 | 79 | 1009.5 |
| 20260831170404 | 46 | 206 | 5.2 | 10.4 | 0.00 | 0.02 | 0.00 | 79 | 1009.5 |
| 20260831165904 | 46 | 199 | 5.2 | 13.9 | 0.00 | 0.02 | 0.00 | 79 | 1009.4 |
| 20260831165405 | 46 | 227 | 4.3 | 10.4 | 0.00 | 0.02 | 0.00 | 79 | 1009.2 |
| 20260831164904 | 46 | 230 | 5.2 | 13.9 | 0.00 | 0.02 | 0.00 | 79 | 1009.3 |
| 20260831163904 | 46 | 233 | 6.1 | 14.8 | 0.00 | 0.02 | 0.00 | 80 | 1009.2 |
| 20260831162904 | 46 | 201 | 7.0 | 17.4 | 0.00 | 0.02 | 0.00 | 81 | 1009.0 |
| 20260831162405 | 45 | 223 | 4.3 | 14.8 | 0.00 | 0.02 | 0.00 | 81 | 1009.0 |
| 20260831161904 | 45 | 215 | 4.3 | 12.2 | 0.00 | 0.02 | 0.00 | 81 | 1009.1 |
| 20260831160904 | 45 | 264 | 5.2 | 11.3 | 0.00 | 0.02 | 0.00 | 81 | 1009.0 |
| 20260831160405 | 45 | 260 | 4.3 | 12.2 | 0.00 | 0.02 | 0.00 | 82 | 1008.9 |
| 20260831154904 | 45 | 250 | 1.7 | 10.4 | 0.00 | 0.02 | 0.00 | 82 | 1008.8 |
| 20260831154405 | 45 | 215 | 6.1 | 12.2 | 0.00 | 0.02 | 0.00 | 82 | 1008.8 |
| 20260831153905 | 46 | 198 | 6.1 | 17.4 | 0.00 | 0.02 | 0.00 | 82 | 1008.7 |
| 20260831153404 | 46 | 214 | 7.0 | 13.9 | 0.00 | 0.02 | 0.00 | 81 | 1008.7 |
| 20260831152904 | 47 | 219 | 7.0 | 21.7 | 0.00 | 0.02 | 0.00 | 80 | 1008.7 |
| 20260831152404 | 47 | 260 | 9.6 | 25.2 | 0.00 | 0.02 | 0.00 | 77 | 1008.6 |
| 20260831151904 | 47 | 207 | 6.1 | 15.6 | 0.00 | 0.02 | 0.00 | 75 | 1008.8 |
| 20260831151404 | 47 | 238 | 5.2 | 13.9 | 0.00 | 0.02 | 0.00 | 76 | 1008.5 |
| 20260831150905 | 47 | 237 | 7.8 | 15.6 | 0.00 | 0.02 | 0.00 | 76 | 1008.5 |
| 20260831150405 | 47 | 241 | 7.0 | 17.4 | 0.00 | 0.02 | 0.00 | 76 | 1008.4 |
| 20260831145904 | 47 | 206 | 6.1 | 14.8 | 0.00 | 0.02 | 0.00 | 76 | 1008.5 |
| 20260831145405 | 47 | 227 | 5.2 | 17.4 | 0.00 | 0.02 | 0.00 | 76 | 1008.5 |
| 20260831144905 | 47 | 195 | 7.8 | 17.4 | 0.00 | 0.02 | 0.00 | 76 | 1008.5 |
| 20260831143905 | 47 | 186 | 6.1 | 15.6 | 0.00 | 0.02 | 0.00 | 76 | 1008.5 |
| 20260831142904 | 47 | 237 | 7.8 | 15.6 | 0.00 | 0.02 | 0.00 | 74 | 1008.4 |
| 20260831142404 | 47 | 210 | 7.8 | 15.6 | 0.00 | 0.02 | 0.00 | 75 | 1008.3 |
| 20260831141904 | 47 | 336 | 4.3 | 17.4 | 0.00 | 0.02 | 0.00 | 75 | 1008.5 |
| 20260831141405 | 47 | 218 | 5.2 | 13.9 | 0.00 | 0.02 | 0.00 | 75 | 1008.4 |
| 20260831140905 | 47 | 202 | 6.1 | 13.0 | 0.00 | 0.02 | 0.00 | 75 | 1008.6 |
| 20260831140404 | 47 | 158 | 4.3 | 15.6 | 0.00 | 0.02 | 0.00 | 74 | 1008.6 |
| 20260831135905 | 47 | 205 | 7.0 | 17.4 | 0.00 | 0.02 | 0.00 | 74 | 1008.8 |
| 20260831135404 | 47 | 215 | 7.8 | 20.0 | 0.00 | 0.02 | 0.00 | 74 | 1008.7 |
| 20260831134905 | 47 | 206 | 5.2 | 14.8 | 0.00 | 0.02 | 0.00 | 73 | 1008.4 |
| 20260831134404 | 47 | 216 | 7.0 | 19.1 | 0.00 | 0.02 | 0.00 | 73 | 1008.4 |
| 20260831133404 | 47 | 209 | 6.1 | 14.8 | 0.00 | 0.02 | 0.00 | 73 | 1008.1 |
| 20260831132905 | 48 | 220 | 7.0 | 13.9 | 0.00 | 0.02 | 0.00 | 72 | 1008.0 |
| 20260831132404 | 48 | 212 | 7.8 | 22.6 | 0.00 | 0.02 | 0.00 | 72 | 1007.8 |
| 20260831130904 | 48 | 212 | 7.0 | 19.1 | 0.00 | 0.02 | 0.00 | 70 | 1007.8 |
| 20260831130404 | 48 | 188 | 7.0 | 14.8 | 0.00 | 0.02 | 0.00 | 70 | 1007.6 |
| 20260831125904 | 48 | 198 | 8.7 | 20.0 | 0.01 | 0.02 | 0.00 | 69 | 1007.4 |
| 20260831124905 | 49 | 201 | 7.8 | 20.9 | 0.01 | 0.02 | 0.00 | 69 | 1007.2 |
| 20260831124405 | 49 | 214 | 7.8 | 20.0 | 0.01 | 0.02 | 0.00 | 70 | 1006.9 |
| 20260831123404 | 49 | 214 | 9.6 | 19.1 | 0.01 | 0.02 | 0.00 | 70 | 1007.1 |
| 20260831122904 | 49 | 206 | 7.8 | 22.6 | 0.01 | 0.02 | 0.00 | 71 | 1007.1 |
| 20260831122405 | 49 | 300 | 6.1 | 17.4 | 0.01 | 0.02 | 0.00 | 72 | 1007.0 |
| 20260831121905 | 49 | 205 | 7.8 | 15.6 | 0.01 | 0.02 | 0.00 | 72 | 1006.8 |
| 20260831121404 | 49 | 207 | 8.7 | 19.1 | 0.01 | 0.02 | 0.00 | 73 | 1006.8 |
| 20260831120405 | 49 | 201 | 7.8 | 13.9 | 0.01 | 0.02 | 0.00 | 75 | 1006.8 |
| 20260831115904 | 49 | 252 | 6.1 | 17.4 | 0.00 | 0.02 | 0.01 | 74 | 1006.7 |
| 20260831115405 | 49 | 224 | 7.8 | 20.9 | 0.00 | 0.02 | 0.01 | 74 | 1006.7 |
| 20260831114404 | 49 | 201 | 7.0 | 20.0 | 0.00 | 0.02 | 0.01 | 74 | 1006.7 |
| 20260831113904 | 49 | 205 | 6.1 | 17.4 | 0.00 | 0.02 | 0.01 | 74 | 1006.6 |
| 20260831113404 | 49 | 209 | 7.8 | 18.2 | 0.00 | 0.02 | 0.01 | 74 | 1006.4 |
| 20260831112904 | 49 | 236 | 6.1 | 22.6 | 0.00 | 0.02 | 0.01 | 74 | 1006.3 |
| 20260831112404 | 49 | 244 | 6.1 | 17.4 | 0.00 | 0.02 | 0.01 | 74 | 1006.2 |
| 20260831111404 | 49 | 227 | 6.1 | 17.4 | 0.00 | 0.02 | 0.01 | 75 | 1006.2 |
| 20260831110904 | 49 | 182 | 6.1 | 13.9 | 0.00 | 0.02 | 0.01 | 75 | 1006.2 |
| 20260831110409 | 49 | 277 | 8.7 | 19.1 | 0.00 | 0.02 | 0.01 | 75 | 1006.4 |
| 20260831105904 | 49 | 210 | 8.7 | 20.0 | 0.00 | 0.02 | 0.01 | 76 | 1006.1 |
| 20260831105406 | 49 | 201 | 8.7 | 14.8 | 0.00 | 0.02 | 0.01 | 76 | 1006.0 |
| 20260831104405 | 49 | 255 | 8.7 | 17.4 | 0.00 | 0.02 | 0.01 | 76 | 1005.9 |
| 20260831103904 | 49 | 235 | 5.2 | 12.2 | 0.00 | 0.02 | 0.01 | 76 | 1005.7 |
| 20260831103405 | 49 | 211 | 7.8 | 20.0 | 0.00 | 0.02 | 0.01 | 76 | 1005.8 |
| 20260831101404 | 50 | 178 | 5.2 | 17.4 | 0.00 | 0.02 | 0.01 | 75 | 1005.7 |
| 20260831100905 | 50 | 201 | 6.1 | 19.1 | 0.00 | 0.02 | 0.01 | 74 | 1005.7 |
| 20260831100404 | 50 | 193 | 10.4 | 17.4 | 0.00 | 0.02 | 0.01 | 74 | 1005.5 |
| 20260831095904 | 50 | 217 | 10.4 | 20.0 | 0.00 | 0.02 | 0.01 | 73 | 1005.3 |
| 20260831095405 | 50 | 224 | 6.1 | 18.2 | 0.00 | 0.02 | 0.01 | 74 | 1005.2 |
| 20260831094905 | 50 | 215 | 7.8 | 17.4 | 0.00 | 0.02 | 0.01 | 73 | 1005.1 |
| 20260831094404 | 51 | 210 | 11.3 | 30.4 | 0.00 | 0.02 | 0.01 | 73 | 1005.0 |
| 20260831093404 | 51 | 211 | 10.4 | 27.8 | 0.00 | 0.02 | 0.01 | 72 | 1004.8 |
| 20260831092904 | 52 | 193 | 8.7 | 20.0 | 0.00 | 0.02 | 0.01 | 71 | 1004.7 |
| 20260831092408 | 52 | 206 | 14.8 | 30.4 | 0.00 | 0.02 | 0.01 | 72 | 1004.4 |
| 20260831091906 | 52 | 214 | 8.7 | 25.2 | 0.00 | 0.02 | 0.01 | 71 | 1004.3 |
| 20260831091406 | 52 | 255 | 10.4 | 20.0 | 0.00 | 0.02 | 0.01 | 72 | 1004.1 |
| 20260831090905 | 51 | 216 | 11.3 | 22.6 | 0.00 | 0.02 | 0.01 | 72 | 1004.1 |
| 20260831090405 | 51 | 203 | 11.3 | 22.6 | 0.00 | 0.02 | 0.01 | 73 | 1004.0 |
| 20260831085905 | 51 | 304 | 10.4 | 22.6 | 0.00 | 0.02 | 0.01 | 74 | 1004.0 |
| 20260831085405 | 51 | 191 | 8.7 | 21.7 | 0.00 | 0.02 | 0.01 | 74 | 1003.8 |
| 20260831084905 | 51 | 198 | 12.2 | 24.3 | 0.00 | 0.02 | 0.01 | 74 | 1003.8 |
| 20260831084405 | 51 | 223 | 11.3 | 27.8 | 0.00 | 0.02 | 0.01 | 74 | 1003.7 |
| 20260831083404 | 50 | 241 | 10.4 | 22.6 | 0.00 | 0.02 | 0.01 | 78 | 1003.6 |
| 20260831082904 | 50 | 293 | 7.8 | 22.6 | 0.00 | 0.02 | 0.01 | 79 | 1003.7 |
| 20260831081904 | 50 | 218 | 10.4 | 27.8 | 0.01 | 0.02 | 0.01 | 80 | 1003.6 |
| 20260831081408 | 50 | 303 | 10.4 | 26.9 | 0.01 | 0.02 | 0.01 | 79 | 1003.4 |
| 20260831080905 | 51 | 282 | 11.3 | 22.6 | 0.01 | 0.02 | 0.01 | 78 | 1003.6 |
| 20260831080405 | 51 | 244 | 8.7 | 22.6 | 0.01 | 0.02 | 0.01 | 79 | 1003.5 |
| 20260831075904 | 51 | 228 | 11.3 | 28.7 | 0.01 | 0.02 | 0.01 | 79 | 1003.4 |
| 20260831074904 | 50 | 215 | 9.6 | 26.1 | 0.01 | 0.02 | 0.01 | 80 | 1003.2 |
| 20260831074405 | 50 | 215 | 7.8 | 21.7 | 0.01 | 0.02 | 0.01 | 81 | 1003.1 |
| 20260831073405 | 50 | 217 | 9.6 | 20.9 | 0.01 | 0.02 | 0.01 | 82 | 1003.0 |
| 20260831072905 | 50 | 212 | 11.3 | 24.3 | 0.01 | 0.02 | 0.01 | 81 | 1002.9 |
| 20260831072404 | 51 | 221 | 10.4 | 22.6 | 0.01 | 0.02 | 0.01 | 80 | 1002.9 |
| 20260831071905 | 50 | 205 | 11.3 | 21.7 | 0.00 | 0.02 | 0.00 | 80 | 1002.7 |
| 20260831071404 | 50 | 213 | 12.2 | 22.6 | 0.00 | 0.02 | 0.00 | 81 | 1002.7 |
| 20260831070905 | 49 | 235 | 11.3 | 30.4 | 0.00 | 0.02 | 0.00 | 82 | 1002.7 |
| 20260831065404 | 49 | 235 | 11.3 | 24.3 | 0.00 | 0.02 | 0.00 | 81 | 1002.7 |
| 20260831064405 | 50 | 247 | 13.9 | 28.7 | 0.00 | 0.02 | 0.00 | 79 | 1002.8 |
| 20260831063904 | 51 | 222 | 11.3 | 26.1 | 0.00 | 0.02 | 0.00 | 76 | 1002.8 |
| 20260831063404 | 51 | 211 | 7.8 | 20.0 | 0.00 | 0.02 | 0.00 | 75 | 1002.8 |
| 20260831062904 | 51 | 193 | 11.3 | 22.6 | 0.00 | 0.02 | 0.00 | 75 | 1002.7 |
| 20260831062404 | 51 | 225 | 11.3 | 22.6 | 0.00 | 0.02 | 0.00 | 74 | 1002.5 |
| 20260831061905 | 52 | 202 | 10.4 | 21.7 | 0.00 | 0.02 | 0.00 | 73 | 1002.5 |
| 20260831061404 | 52 | 203 | 17.4 | 31.3 | 0.00 | 0.02 | 0.00 | 72 | 1002.3 |
| 20260831060906 | 52 | 212 | 13.9 | 28.7 | 0.00 | 0.02 | 0.00 | 71 | 1002.5 |
| 20260831060405 | 53 | 220 | 13.9 | 27.8 | 0.00 | 0.02 | 0.00 | 71 | 1002.7 |
| 20260831055904 | 53 | 268 | 10.4 | 25.2 | 0.00 | 0.02 | 0.00 | 71 | 1002.4 |
| 20260831055404 | 53 | 202 | 13.0 | 25.2 | 0.00 | 0.02 | 0.00 | 71 | 1002.1 |
| 20260831054904 | 53 | 205 | 12.2 | 30.4 | 0.00 | 0.02 | 0.00 | 70 | 1002.1 |
| 20260831054404 | 53 | 207 | 13.9 | 30.4 | 0.00 | 0.02 | 0.00 | 70 | 1001.9 |
| 20260831053904 | 53 | 210 | 12.2 | 24.3 | 0.00 | 0.02 | 0.00 | 70 | 1001.7 |
| 20260831053404 | 54 | 218 | 13.0 | 24.3 | 0.00 | 0.02 | 0.00 | 69 | 1001.9 |
| 20260831052904 | 54 | 218 | 13.9 | 28.7 | 0.00 | 0.02 | 0.00 | 69 | 1001.8 |
| 20260831052404 | 54 | 219 | 13.0 | 28.7 | 0.00 | 0.02 | 0.00 | 70 | 1001.9 |
| 20260831051904 | 54 | 229 | 12.2 | 26.1 | 0.00 | 0.02 | 0.00 | 69 | 1002.0 |
| 20260831051404 | 54 | 216 | 13.0 | 30.4 | 0.00 | 0.02 | 0.00 | 69 | 1001.9 |
| 20260831050405 | 55 | 212 | 11.3 | 26.9 | 0.00 | 0.02 | 0.00 | 66 | 1001.9 |
| 20260831045904 | 55 | 195 | 15.6 | 28.7 | 0.00 | 0.02 | 0.00 | 67 | 1001.6 |
| 20260831045406 | 55 | 202 | 13.9 | 30.4 | 0.00 | 0.02 | 0.00 | 68 | 1001.7 |
| 20260831044904 | 55 | 198 | 13.9 | 25.2 | 0.00 | 0.02 | 0.00 | 70 | 1001.6 |
| 20260831044405 | 55 | 222 | 13.9 | 33.0 | 0.00 | 0.02 | 0.00 | 70 | 1001.7 |
| 20260831043904 | 55 | 210 | 14.8 | 37.4 | 0.00 | 0.02 | 0.00 | 71 | 1001.6 |
| 20260831043404 | 55 | 206 | 14.8 | 28.7 | 0.00 | 0.02 | 0.00 | 71 | 1001.4 |
| 20260831042904 | 55 | 204 | 14.8 | 28.7 | 0.00 | 0.02 | 0.00 | 71 | 1001.4 |
| 20260831042405 | 55 | 221 | 13.9 | 27.8 | 0.00 | 0.02 | 0.00 | 71 | 1001.5 |
| 20260831041904 | 56 | 231 | 12.2 | 21.7 | 0.00 | 0.02 | 0.00 | 71 | 1001.3 |
| 20260831041404 | 55 | 221 | 12.2 | 25.2 | 0.00 | 0.02 | 0.00 | 71 | 1001.4 |
| 20260831040905 | 55 | 202 | 13.9 | 31.3 | 0.00 | 0.02 | 0.00 | 70 | 1001.5 |
| 20260831040406 | 55 | 266 | 14.8 | 31.3 | 0.00 | 0.02 | 0.00 | 71 | 1001.3 |
| 20260831035905 | 55 | 249 | 13.9 | 31.3 | 0.00 | 0.02 | 0.00 | 73 | 1001.5 |
| 20260831035405 | 55 | 253 | 13.0 | 26.1 | 0.00 | 0.02 | 0.00 | 74 | 1001.6 |
| 20260831034904 | 55 | 221 | 11.3 | 20.0 | 0.00 | 0.02 | 0.00 | 74 | 1001.4 |
| 20260831034404 | 55 | 216 | 11.3 | 26.9 | 0.00 | 0.02 | 0.00 | 73 | 1001.4 |
| 20260831033904 | 55 | 217 | 12.2 | 30.4 | 0.00 | 0.02 | 0.00 | 73 | 1001.3 |
| 20260831033404 | 55 | 224 | 12.2 | 37.4 | 0.00 | 0.02 | 0.00 | 74 | 1001.4 |
| 20260831031404 | 55 | 213 | 12.2 | 32.2 | 0.00 | 0.02 | 0.00 | 74 | 1001.4 |
| 20260831030404 | 54 | 250 | 15.6 | 30.4 | 0.00 | 0.02 | 0.00 | 76 | 1001.2 |
| 20260831025404 | 55 | 216 | 12.2 | 33.9 | 0.00 | 0.02 | 0.00 | 76 | 1001.4 |
| 20260831024904 | 55 | 259 | 14.8 | 26.9 | 0.00 | 0.02 | 0.00 | 73 | 1001.2 |
| 20260831024405 | 56 | 259 | 13.9 | 30.4 | 0.00 | 0.02 | 0.00 | 69 | 1001.1 |
| 20260831022904 | 57 | 234 | 12.2 | 30.4 | 0.00 | 0.02 | 0.00 | 69 | 1000.7 |
| 20260831022404 | 58 | 207 | 14.8 | 30.4 | 0.00 | 0.02 | 0.00 | 69 | 1000.6 |
| 20260831021904 | 57 | 227 | 11.3 | 27.8 | 0.00 | 0.02 | 0.00 | 68 | 1000.7 |
| 20260831021404 | 58 | 218 | 13.9 | 26.1 | 0.00 | 0.02 | 0.00 | 67 | 1000.4 |
| 20260831020904 | 57 | 228 | 13.9 | 31.3 | 0.00 | 0.02 | 0.00 | 68 | 1000.6 |
| 20260831020404 | 57 | 214 | 12.2 | 38.2 | 0.00 | 0.02 | 0.00 | 69 | 1000.4 |
| 20260831015904 | 57 | 209 | 15.6 | 30.4 | 0.00 | 0.02 | 0.00 | 68 | 1000.5 |
| 20260831015404 | 57 | 218 | 14.8 | 28.7 | 0.00 | 0.02 | 0.00 | 68 | 1000.6 |
| 20260831014905 | 57 | 223 | 14.8 | 39.1 | 0.00 | 0.02 | 0.00 | 67 | 1000.3 |
| 20260831014404 | 58 | 213 | 13.9 | 30.4 | 0.00 | 0.02 | 0.00 | 69 | 1000.5 |
| 20260831013904 | 57 | 208 | 13.9 | 27.8 | 0.00 | 0.02 | 0.00 | 72 | 1000.7 |
| 20260831013404 | 57 | 198 | 12.2 | 26.9 | 0.00 | 0.02 | 0.00 | 73 | 1000.6 |
| 20260831012904 | 56 | 321 | 15.6 | 33.9 | 0.00 | 0.02 | 0.00 | 71 | 1000.3 |
| 20260831012405 | 56 | 228 | 15.6 | 42.6 | 0.00 | 0.02 | 0.00 | 71 | 1000.1 |
| 20260831011904 | 56 | 228 | 14.8 | 37.4 | 0.00 | 0.02 | 0.00 | 71 | 1000.2 |
| 20260831011404 | 56 | 213 | 13.0 | 28.7 | 0.00 | 0.02 | 0.00 | 73 | 1000.3 |
| 20260831010904 | 55 | 253 | 11.3 | 26.1 | 0.00 | 0.02 | 0.00 | 74 | 1000.3 |
| 20260831010404 | 54 | 300 | 15.6 | 33.0 | 0.00 | 0.02 | 0.00 | 76 | 1000.3 |
| 20260831005904 | 55 | 201 | 13.9 | 33.9 | 0.00 | 0.02 | 0.00 | 79 | 1000.5 |
| 20260831005405 | 56 | 287 | 13.9 | 28.7 | 0.00 | 0.02 | 0.00 | 77 | 1000.7 |
| 20260831004906 | 57 | 237 | 10.4 | 25.2 | 0.00 | 0.02 | 0.00 | 77 | 1000.6 |
| 20260831004405 | 57 | 274 | 11.3 | 22.6 | 0.00 | 0.02 | 0.00 | 76 | 1000.4 |
| 20260831003904 | 57 | 252 | 10.4 | 27.8 | 0.00 | 0.02 | 0.00 | 76 | 1000.6 |
| 20260831003404 | 57 | 257 | 10.4 | 27.8 | 0.00 | 0.02 | 0.00 | 76 | 1000.5 |
| 20260831002904 | 57 | 211 | 13.9 | 33.9 | 0.00 | 0.02 | 0.00 | 75 | 1000.5 |
| 20260831002405 | 57 | 300 | 13.9 | 33.9 | 0.00 | 0.02 | 0.00 | 75 | 1000.5 |
| 20260831001404 | 57 | 211 | 11.3 | 26.1 | 0.00 | 0.02 | 0.00 | 76 | 1001.0 |